Content
SEND FEEDBACK

Daily
Averages
Monthly
Summary
Greece

PITHAGORION, GREECE


Home > Europe > Greece
Elevation: 23 feet     Latitude: 37 42N     Longitude: 026 55E

WEATHER
 
SELECT A DAY
Number of Records: 75,077;   Date Range: 7/1/96 - 10/19/14
 
SHARE

PRINT THIS DATA

[ ← Previous Day ]
WEATHER ALMANAC - JANUARY 31, 2013
[ Next Day → ]
[ °C ]   °F
Weather ElementAverageHighLow
Temperature49.8 °F55.4 °F (2:20 pm)44 °F (8:00 am)
Dewpoint34 °F38 °F (8:00 pm)30.2 °F (6:50 am)
Humidity54.1 %66 % (7:50 am)37 % (2:00 pm)
Barometer29.89 in29.95 in (6:50 am)29.83 in (3:50 pm)
Wind Speed8 mph13.8 mph (9:20 am)
Weather ElementAverage
Visibility6.2 mi
Wind DirectionSSE (155.5 °)

Weather ElementTotal
Precipitation---
Heating Degree Days15.3 (Base 65)
Averaged from 34 records on January 31, 2013
WEATHER CONDITIONS BREAKOUT
WIND DIRECTION BREAKOUT
WEATHER BY HOUR - JANUARY 31, 2013
[ °C ]   °F
Local TimeTemperatureDewpointHumidityBarometerVisibilityWind DirectionWind SpeedGust SpeedPrecipitationEventsConditions
5:20 AM44.6 °F32.0 °F61 %29.92 in6.2 miNorth (360°)3.5 mphPartly Cloudy
5:50 AM44.6 °F32.0 °F61 %29.92 in6.2 miNorth (10°)6.9 mphPartly Cloudy
6:20 AM44.6 °F32.0 °F61 %29.92 in6.2 miNorth (350°)11.5 mphPartly Cloudy
6:50 AM44.6 °F30.2 °F57 %29.95 in6.2 miNNE (20°)4.6 mphPartly Cloudy
7:20 AM44.6 °F30.2 °F57 %29.95 in6.2 miNNW (340°)4.6 mphPartly Cloudy
7:50 AM44.6 °F33.8 °F66 %29.95 in6.2 miNW (320°)5.8 mphScattered Clouds
8:00 AM44.0 °F35.0 °F59 %29.95 in6.0 miNW (320°)5.8 mphScattered Clouds
8:20 AM44.6 °F33.8 °F66 %29.95 in6.2 miNorth (350°)9.2 mphScattered Clouds
8:50 AM46.4 °F32.0 °F57 %29.92 in6.2 miNorth (10°)10.4 mphScattered Clouds
9:20 AM46.4 °F33.8 °F62 %29.92 in6.2 miNNE (30°)13.8 mphScattered Clouds
9:50 AM48.2 °F32.0 °F54 %29.92 in6.2 miNNE (30°)12.7 mphScattered Clouds
10:20 AM48.2 °F33.8 °F58 %29.92 in6.2 miNNE (20°)12.7 mphPartly Cloudy
10:50 AM50.0 °F33.8 °F54 %29.92 in6.2 miNorth (10°)12.7 mphPartly Cloudy
11:20 AM50.0 °F33.8 °F54 %29.92 in6.2 miNE (40°)10.4 mphPartly Cloudy
11:50 AM50.0 °F33.8 °F54 %29.89 inNNE (20°)12.7 mphClear
12:20 PM50.0 °F33.8 °F54 %29.89 inNNE (20°)12.7 mphClear
12:50 PM51.8 °F33.8 °F50 %29.89 inNorth (360°)12.7 mphClear
1:20 PM51.8 °F33.8 °F50 %29.89 inNorth (360°)12.7 mphClear
1:50 PM53.6 °F35.6 °F51 %29.86 in6.2 miNorth (360°)11.5 mphScattered Clouds
2:00 PM54.0 °F35.0 °F37 %29.88 in6.0 miNorth11.5 mphScattered Clouds
2:20 PM55.4 °F35.6 °F47 %29.86 in6.2 miNorth (360°)11.5 mphScattered Clouds
2:50 PM55.4 °F33.8 °F44 %29.86 in6.2 miNorth (10°)11.5 mphScattered Clouds
3:20 PM55.4 °F33.8 °F44 %29.86 in6.2 miNorth (10°)11.5 mphScattered Clouds
3:50 PM55.4 °F33.8 °F44 %29.83 in6.2 miNorth (360°)9.2 mphScattered Clouds
4:20 PM53.6 °F33.8 °F47 %29.83 in6.2 miNorth (360°)9.2 mphScattered Clouds
4:50 PM51.8 °F33.8 °F50 %29.83 in6.2 miNorth (350°)6.9 mphMostly Cloudy
5:20 PM51.8 °F33.8 °F50 %29.83 in6.2 miNorth (350°)6.9 mphMostly Cloudy
5:50 PM51.8 °F35.6 °F54 %29.83 in6.2 miVariable3.5 mphMostly Cloudy
6:20 PM51.8 °F35.6 °F54 %29.83 in6.2 miVariable3.5 mphMostly Cloudy
6:50 PM51.8 °F35.6 °F54 %29.83 in6.2 miCalmMostly Cloudy
7:20 PM51.8 °F35.6 °F54 %29.83 in6.2 miCalmMostly Cloudy
7:50 PM50.0 °F37.4 °F62 %29.86 in6.2 miCalmMostly Cloudy
8:00 PM50.0 °F38.0 °F52 %29.88 in6.0 miCalmScattered Clouds
8:20 PM50.0 °F37.4 °F62 %29.86 in6.2 miCalmMostly Cloudy
Hourly data recorded from LGSM, located miles away from Pithagorion, Greece







STORIES FROM OUR PARTNERS